Ashland, WI

4:04 AM CDT on April 29, 2017 (GMT -0500)
Kennedy Memorial

Weather History for KASX - February, 2013

Change the Weather History Date:

Friday, February 8, 2013

  Actual Average Record
Temperature  
Mean Temperature 12 °F -  
Max Temperature 21 °F 25 °F 55 °F (1991)
Min Temperature 1 °F 0 °F -33 °F (1979)
Degree Days  
Heating Degree Days 53    
Moisture  
Dew Point 10 °F    
Average Humidity 80    
Maximum Humidity 91    
Minimum Humidity 68    
Precipitation  
Precipitation 0.00 in - - ()
Sea Level Pressure  
Sea Level Pressure 30.38 in    
Wind  
Wind Speed 8 mph (NNE)    
Max Wind Speed 14 mph    
Max Gust Speed -    
Visibility 8 miles    
Events Snow    
Averages and records for this station are not official NWS values.
T = Trace of Precipitation, MM = Missing Value Source: NWS Daily Summary

Daily Weather History Graph

Daily Weather History Graph

Search for Another Location

Airport or City:

Trip Planner

Search our weather history database for the weather conditions in past years. The results will help you decide how hot, cold, wet, or windy it might be!

Date:

Astronomy

Feb. 08, 2013 Rise Set
Actual Time 7:17 AM CST 5:18 PM CST
Civil Twilight 6:46 AM CST 5:50 PM CST
Nautical Twilight 6:10 AM CST 6:26 PM CST
Astronomical Twilight 5:35 AM CST 7:01 PM CST
Moon 5:49 AM CST (2/8) 3:50 PM CST (2/8)
Length of Visible Light 11h 04m
Length of Day
10h 01m
Waning Crescent, 3% of the Moon is Illuminated
Feb 8
Waning Crescent
Feb 10
New
Feb 17
First Quarter
Feb 25
Full
Mar 4
Last Quarter

Hourly Weather History & Observations

Time (CST) Temp. Windchill Dew Point Humidity Pressure Visibility Wind Dir Wind Speed Gust Speed Precip Events Conditions
12:01 AM 19.4 °F 7.2 °F 15.8 °F 86% 30.31 in 1.5 mi NNE 11.5 mph - 0.00 in Snow Light Snow
12:08 AM 19.4 °F 7.2 °F 15.8 °F 86% 30.31 in 3.0 mi NNE 11.5 mph - 0.00 in Snow Light Snow
12:17 AM 19.4 °F 6.0 °F 15.8 °F 86% 30.31 in 4.0 mi NNE 13.8 mph - 0.00 in Snow Light Snow
12:53 AM 19.0 °F 7.5 °F 14.0 °F 81% 30.35 in 4.0 mi NNE 10.4 mph - 0.00 in Snow Light Snow
1:53 AM 12.9 °F 1.6 °F 8.1 °F 81% 30.36 in 10.0 mi NNE 8.1 mph - 0.00 in   Overcast
2:53 AM 16.0 °F 5.3 °F 10.9 °F 81% 30.37 in 10.0 mi North 8.1 mph - N/A   Overcast
3:53 AM 9.0 °F -0.9 °F 6.1 °F 88% 30.37 in 10.0 mi North 5.8 mph - N/A   Partly Cloudy
4:08 AM 6.8 °F -4.8 °F 3.2 °F 85% 30.32 in 10.0 mi North 6.9 mph - N/A   Mostly Cloudy
4:53 AM 14.0 °F 3.9 °F 10.0 °F 84% 30.38 in 10.0 mi North 6.9 mph - N/A   Overcast
5:53 AM 16.0 °F 5.3 °F 10.0 °F 77% 30.40 in 6.0 mi North 8.1 mph - 0.00 in Snow Light Snow
6:53 AM 17.1 °F 7.6 °F 12.0 °F 81% 30.41 in 6.0 mi North 6.9 mph - 0.00 in Snow Light Snow
7:53 AM 17.1 °F 6.6 °F 12.0 °F 81% 30.43 in 6.0 mi North 8.1 mph - 0.00 in Snow Light Snow
8:53 AM 18.0 °F 6.1 °F 12.9 °F 81% 30.44 in 8.0 mi North 10.4 mph - 0.00 in   Overcast
9:53 AM 19.0 °F 8.2 °F 12.0 °F 74% 30.45 in 6.0 mi NNE 9.2 mph - 0.00 in Snow Light Snow
10:53 AM 19.9 °F 10.1 °F 12.0 °F 71% 30.46 in 4.0 mi NNE 8.1 mph - 0.00 in Snow Light Snow
11:53 AM 21.0 °F 10.6 °F 14.0 °F 74% 30.45 in 5.0 mi NNE 9.2 mph - 0.00 in Snow Light Snow
12:53 PM 21.0 °F 10.6 °F 14.0 °F 74% 30.44 in 9.0 mi NNE 9.2 mph - 0.00 in Snow Light Snow
1:53 PM 21.0 °F 12.4 °F 14.0 °F 74% 30.43 in 10.0 mi North 6.9 mph - 0.00 in   Overcast
2:53 PM 19.0 °F 9.0 °F 10.9 °F 71% 30.42 in 10.0 mi North 8.1 mph - N/A   Mostly Cloudy
3:18 PM 19.4 °F 9.5 °F 10.4 °F 68% 30.36 in 10.0 mi North 8.1 mph - N/A   Scattered Clouds
3:53 PM 19.0 °F 8.2 °F 10.9 °F 71% 30.41 in 10.0 mi North 9.2 mph - N/A   Clear
4:53 PM 14.0 °F 3.9 °F 8.1 °F 77% 30.39 in 10.0 mi NNE 6.9 mph - N/A   Clear
5:53 PM 12.0 °F - 7.0 °F 80% 30.38 in 10.0 mi Calm Calm - N/A   Clear
6:53 PM 10.0 °F - 7.0 °F 87% 30.38 in 10.0 mi Calm Calm - N/A   Clear
7:53 PM 6.1 °F - 3.0 °F 87% 30.39 in 10.0 mi Calm Calm - N/A   Clear
8:53 PM 8.1 °F - 3.9 °F 83% 30.37 in 10.0 mi Calm Calm - N/A   Clear
9:53 PM 6.1 °F - 3.9 °F 91% 30.36 in 10.0 mi Calm Calm - N/A   Overcast
10:53 PM 3.9 °F - 1.0 °F 88% 30.34 in 10.0 mi Calm Calm - N/A   Clear
11:53 PM 1.9 °F - -2.9 °F 80% 30.34 in 10.0 mi Calm Calm - N/A   Clear